Weather History for KIBM - June, 2013

Change the Weather History Date:

Wednesday, June 5, 2013

  Actual Average (KSNY) Record (KSNY)
Temperature  
Mean Temperature 54 °F 64 °F  
Max Temperature 64 °F 78 °F 95 °F (1977)
Min Temperature 43 °F 50 °F 34 °F (1998)
Degree Days  
Heating Degree Days 12 4  
Month to date heating degree days 20  
Since 1 June heating degree days 20  
Since 1 July heating degree days 6182  
Growing Degree Days 4 (Base 50)    
Moisture  
Dew Point 42 °F    
Average Humidity 68    
Maximum Humidity 91    
Minimum Humidity 40    
Precipitation  
Precipitation 0.12 in 0.10 in 1.71 in (1953)
Month to date precipitation 0.54  
Year to date precipitation 7.30  
Sea Level Pressure  
Sea Level Pressure 30.18 in    
Wind  
Wind Speed 10 mph (NNE)    
Max Wind Speed 18 mph    
Max Gust Speed 22 mph    
Visibility 10 miles    
Events Rain    
T = Trace of Precipitation, MM = Missing Value Source: NWS Daily Summary

Daily Weather History Graph

Daily Weather History Graph

Search for Another Location

Airport or City:

Trip Planner

Search our weather history database for the weather conditions in past years. The results will help you decide how hot, cold, wet, or windy it might be!

Date:

Astronomy

Jun. 05, 2013 Rise Set
Actual Time 6:22 AM CDT 9:24 PM CDT
Civil Twilight 5:49 AM CDT 9:57 PM CDT
Nautical Twilight 5:07 AM CDT 10:40 PM CDT
Astronomical Twilight 4:17 AM CDT 11:29 PM CDT
Moon 4:29 AM CDT (6/5) 6:51 PM CDT (6/5)
Length of Visible Light 16h 08m
Length of Day
15h 01m
Waning Crescent, 8% of the Moon is Illuminated
Jun 5
Waning Crescent
Jun 8
New
Jun 16
First Quarter
Jun 23
Full
Jun 29
Last Quarter

Hourly Weather History & Observations

Time (CDT) Temp. Windchill Dew Point Humidity Pressure Visibility Wind Dir Wind Speed Gust Speed Precip Events Conditions
12:15 AM 50.2 °F - 44.2 °F 80% 30.20 in 10.0 mi NNE 15.0 mph 20.7 mph N/A   Overcast
12:35 AM 50.0 °F - 43.9 °F 79% 30.20 in 10.0 mi NNE 18.4 mph 21.9 mph N/A   Overcast
12:55 AM 49.5 °F - 44.1 °F 82% 30.19 in 10.0 mi NNE 16.1 mph 20.7 mph N/A   Overcast
1:15 AM 49.3 °F - 43.7 °F 81% 30.20 in 10.0 mi North 15.0 mph 19.6 mph N/A   Overcast
1:35 AM 48.7 °F - 44.6 °F 86% 30.19 in 10.0 mi North 11.5 mph - 0.01 in Rain Rain
1:55 AM 48.2 °F - 44.8 °F 88% 30.19 in 10.0 mi North 10.4 mph - 0.04 in Rain Light Rain
2:15 AM 48.2 °F - 45.7 °F 91% 30.20 in 10.0 mi North 9.2 mph - N/A   Light Drizzle
2:35 AM 47.8 °F - 45.3 °F 91% 30.19 in 10.0 mi North 13.8 mph 17.3 mph 0.02 in Rain Light Rain
2:55 AM 47.3 °F - 44.2 °F 89% 30.19 in 10.0 mi North 11.5 mph - 0.02 in Rain Light Rain
3:15 AM 47.3 °F - 43.2 °F 86% 30.20 in 10.0 mi North 6.9 mph - 0.01 in Rain Rain
3:35 AM 47.3 °F - 43.7 °F 87% 30.19 in 10.0 mi North 11.5 mph - 0.02 in Rain Rain
3:55 AM 47.3 °F - 43.5 °F 87% 30.19 in 10.0 mi North 10.4 mph - 0.02 in   Overcast
4:15 AM 47.1 °F - 43.0 °F 86% 30.19 in 10.0 mi North 12.7 mph 19.6 mph N/A Rain Light Rain
4:35 AM 45.3 °F 38.4 °F 39.9 °F 81% 30.20 in 10.0 mi North 16.1 mph - N/A   Light Drizzle
4:55 AM 44.6 °F 39.2 °F 39.6 °F 82% 30.20 in 10.0 mi NNE 10.4 mph - N/A Rain Light Rain
5:15 AM 44.2 °F 38.8 °F 40.1 °F 85% 30.20 in 10.0 mi NNE 10.4 mph - 0.01 in Rain Rain
5:35 AM 43.9 °F 38.8 °F 40.1 °F 87% 30.21 in 10.0 mi NNE 9.2 mph - 0.01 in   Overcast
5:55 AM 43.9 °F 38.8 °F 40.3 °F 87% 30.21 in 10.0 mi NNE 9.2 mph - 0.01 in   Overcast
6:15 AM 43.7 °F 38.6 °F 39.9 °F 87% 30.22 in 10.0 mi NNE 9.2 mph - N/A   Overcast
6:35 AM 43.7 °F 38.6 °F 39.7 °F 86% 30.22 in 10.0 mi North 9.2 mph - N/A   Overcast
6:55 AM 43.3 °F 38.1 °F 38.7 °F 84% 30.23 in 10.0 mi North 9.2 mph 17.3 mph N/A   Overcast
7:15 AM 43.3 °F 37.7 °F 38.5 °F 83% 30.23 in 10.0 mi North 10.4 mph - N/A   Overcast
7:35 AM 43.7 °F 37.3 °F 38.5 °F 82% 30.23 in 10.0 mi North 12.7 mph - N/A   Overcast
7:55 AM 43.7 °F 38.6 °F 38.1 °F 81% 30.23 in 10.0 mi North 9.2 mph - N/A   Overcast
8:15 AM 44.2 °F 38.8 °F 37.9 °F 79% 30.23 in 10.0 mi North 10.4 mph - N/A   Overcast
8:35 AM 44.6 °F 40.2 °F 38.1 °F 78% 30.23 in 10.0 mi North 8.1 mph - N/A   Overcast
8:55 AM 44.8 °F 41.0 °F 37.9 °F 77% 30.23 in 10.0 mi North 6.9 mph - N/A   Overcast
9:15 AM 45.5 °F 40.8 °F 37.8 °F 74% 30.24 in 10.0 mi North 9.2 mph - N/A   Overcast
9:35 AM 45.5 °F 40.8 °F 37.9 °F 75% 30.24 in 10.0 mi North 9.2 mph - N/A   Overcast
9:55 AM 46.2 °F 42.7 °F 38.1 °F 73% 30.23 in 10.0 mi NNW 6.9 mph - N/A   Overcast
10:15 AM 46.6 °F - 37.8 °F 71% 30.23 in 10.0 mi NNW 9.2 mph - N/A   Overcast
10:35 AM 47.3 °F - 38.3 °F 71% 30.23 in 10.0 mi NNW 9.2 mph - N/A   Overcast
10:55 AM 48.2 °F - 38.5 °F 69% 30.22 in 10.0 mi North 9.2 mph - N/A   Overcast
11:15 AM 50.0 °F - 40.3 °F 69% 30.22 in 10.0 mi NNW 9.2 mph - N/A   Overcast
11:35 AM 50.7 °F - 39.7 °F 66% 30.21 in 10.0 mi NNW 15.0 mph - N/A   Overcast
11:55 AM 51.4 °F - 40.6 °F 67% 30.20 in 10.0 mi NNW 13.8 mph - N/A   Overcast
12:15 PM 53.8 °F - 41.2 °F 62% 30.20 in 10.0 mi NNW 13.8 mph - N/A   Mostly Cloudy
12:35 PM 54.3 °F - 41.7 °F 62% 30.20 in - North 11.5 mph - 0.03 in   Mostly Cloudy
12:55 PM 55.6 °F - 42.6 °F 62% 30.19 in - NNW 12.7 mph 16.1 mph 0.03 in   Mostly Cloudy
1:15 PM 56.3 °F - 42.1 °F 59% 30.19 in 10.0 mi North 10.4 mph 16.1 mph N/A   Scattered Clouds
1:35 PM 57.7 °F - 43.3 °F 59% 30.17 in 10.0 mi North 10.4 mph - N/A   Clear
1:55 PM 58.3 °F - 41.7 °F 54% 30.17 in 10.0 mi North 9.2 mph - N/A   Clear
2:15 PM 58.5 °F - 41.5 °F 53% 30.17 in 10.0 mi NW 8.1 mph - N/A   Clear
2:35 PM 60.4 °F - 42.8 °F 52% 30.16 in 10.0 mi NNW 8.1 mph - N/A   Clear
2:55 PM 64.0 °F - 42.3 °F 45% 30.16 in 10.0 mi NNE 6.9 mph - N/A   Scattered Clouds
3:15 PM 61.0 °F - 41.4 °F 48% 30.15 in 10.0 mi NNE 3.5 mph - N/A   Scattered Clouds
3:35 PM 61.7 °F - 42.3 °F 49% 30.15 in 10.0 mi NW 6.9 mph - N/A   Scattered Clouds
3:55 PM 62.4 °F - 42.4 °F 48% 30.15 in 10.0 mi North 6.9 mph - N/A   Mostly Cloudy
4:15 PM 62.6 °F - 40.5 °F 44% 30.14 in 10.0 mi ENE 3.5 mph - N/A   Scattered Clouds
4:35 PM 63.7 °F - 42.6 °F 46% 30.14 in 10.0 mi NE 9.2 mph - N/A   Scattered Clouds
4:55 PM 63.5 °F - 40.8 °F 43% 30.14 in 10.0 mi NE 3.5 mph - N/A   Clear
5:15 PM 63.7 °F - 39.0 °F 40% 30.13 in 10.0 mi Calm Calm - N/A   Scattered Clouds
5:35 PM 64.2 °F - 39.7 °F 41% 30.13 in 10.0 mi East 4.6 mph - N/A   Scattered Clouds
5:55 PM 64.4 °F - 40.6 °F 42% 30.13 in 10.0 mi NE 8.1 mph - N/A   Scattered Clouds
6:15 PM 62.8 °F - 40.5 °F 44% 30.13 in 10.0 mi East 3.5 mph - N/A   Mostly Cloudy
6:35 PM 64.6 °F - 40.3 °F 41% 30.12 in 10.0 mi ENE 6.9 mph - N/A   Overcast
6:55 PM 63.7 °F - 39.4 °F 41% 30.12 in 10.0 mi Calm Calm - N/A   Scattered Clouds
7:15 PM 63.1 °F - 39.6 °F 42% 30.12 in 10.0 mi NE 8.1 mph - N/A   Scattered Clouds
7:35 PM 62.1 °F - 42.3 °F 48% 30.12 in 10.0 mi ENE 3.5 mph - N/A   Mostly Cloudy
7:55 PM 61.9 °F - 40.6 °F 46% 30.13 in 10.0 mi Calm Calm - N/A   Mostly Cloudy
8:15 PM 61.7 °F - 41.0 °F 47% 30.13 in 10.0 mi Calm Calm - N/A   Overcast
8:35 PM 61.0 °F - 44.1 °F 54% 30.13 in 10.0 mi Calm Calm - N/A   Overcast
8:55 PM 59.7 °F - 46.2 °F 61% 30.13 in 10.0 mi East 5.8 mph - N/A   Overcast
9:15 PM 58.3 °F - 44.6 °F 60% 30.14 in 10.0 mi East 5.8 mph - N/A   Overcast
9:35 PM 55.9 °F - 45.7 °F 68% 30.14 in 10.0 mi East 6.9 mph - N/A   Scattered Clouds
9:55 PM 52.9 °F - 45.5 °F 76% 30.15 in 10.0 mi East 5.8 mph - N/A   Clear
10:15 PM 52.9 °F - 45.5 °F 76% 30.15 in 10.0 mi East 6.9 mph - N/A   Clear
10:35 PM 52.7 °F - 46.0 °F 78% 30.16 in 10.0 mi ESE 6.9 mph - N/A   Clear
10:55 PM 51.6 °F - 45.5 °F 80% 30.16 in 10.0 mi ESE 6.9 mph - N/A   Scattered Clouds
11:15 PM 52.7 °F - 46.4 °F 79% 30.17 in 10.0 mi SE 4.6 mph - N/A   Mostly Cloudy
11:35 PM 51.6 °F - 46.0 °F 81% 30.16 in 10.0 mi ESE 5.8 mph - N/A   Mostly Cloudy
11:55 PM 49.8 °F - 45.5 °F 85% 30.16 in 10.0 mi ESE 5.8 mph - N/A   Scattered Clouds